Regional Weather Roundup
Issued by NWS Nashville, TN

Home | Current Version | Previous Version | Text Only | Print | Product List | Glossary On
Versions: 1 2 3 4 5 6 7 8 9 10 11 12 13 14 15 16 17 18 19 20 21 22 23 24 25 26 27 28 29 30 31 32 33 34 35 36 37 38 39 40 41 42 43 44 45 46 47 48 49 50
000
ASUS44 KOHX 252310
RWROHX
MIDDLE TENNESSEE HOURLY WEATHER ROUNDUP
NATIONAL WEATHER SERVICE NASHVILLE TN
600 PM CDT TUE JUL 25 2017

NOTE: "FAIR" INDICATES FEW OR NO CLOUDS BELOW 12,000 FEET WITH
NO SIGNIFICANT WEATHER AND/OR OBSTRUCTIONS TO VISIBILITY.

* THESE REPORTS ARE NOT UNDER NWS QUALITY CONTROL AND MAY NOT
  REPORT WEATHER SUCH AS PRECIPITATION AND FOG.


TNZ005>011-023>034-057-059-062>066-078-080-260000
...NORTHERN MIDDLE TENNESSEE...

CITY           SKY/WX    TMP DP  RH WIND       PRES   REMARKS
CLARKSVILLE    CLOUDY    86  73  65 NW5       30.06F HX  93
CROSSVILLE     SUNNY     85  66  53 N7        30.15S
GALLATIN       SUNNY     88  73  62 NE5       30.08F HX  96
DICKSON        CLOUDY    88  74  63 N5        30.08R HX  96
LEBANON        CLOUDY    88  71  56 E5        30.05F HX  93
NASHVILLE      CLOUDY    89  72  56 N6        30.07F HX  96
PORTLAND       SUNNY     90  73  58 NE6       30.07F HX  98
SMYRNA         CLOUDY    90  73  57 N6        30.07F HX  98
SPARTA         SUNNY     88  70  55 N5        30.09S HX  92
SPRINGFIELD    SUNNY     82  73  74 VRB5      30.06S
WEST NASHVILLE SUNNY     84  73  70 CALM      30.04S HX  91
$$
TNZ056-058-060-061-075>077-079-093>097-260000
...SOUTHERN MIDDLE TENNESSEE...

CITY           SKY/WX    TMP DP  RH WIND       PRES   REMARKS
COLUMBIA       SUNNY     91  70  49 CALM      30.04S HX  97
FAYETTEVILLE   SUNNY     88  73  62 CALM      30.07S HX  96
MCMINNVILLE    SUNNY     90  75  62 NE5       30.10R HX 100
MURFREESBORO   CLOUDY    88  70  55 NW3       30.06S HX  93
PULASKI        SUNNY     88  79  74 CALM      30.06S HX 102
SHELBYVILLE    MOSUNNY   86  73  66 E6G13     30.07S HX  93
TULLAHOMA      SUNNY     90  70  51 N5        30.10S HX  95
WINCHESTER     SUNNY     84  73  70 S6        30.09S HX  91
$$


...KEY TO REMARKS...
VSB - VISIBILITY IN MILES
WCI - WIND CHILL INDEX
HX  - HEAT INDEX




USA.gov is the U.S. government's official web portal to all federal, state and local government web resources and services.